EST,Max TemperatureF,Mean TemperatureF,Min TemperatureF,Max Dew PointF,MeanDew PointF,Min DewpointF,Max Humidity, Mean Humidity, Min Humidity, Max Sea Level PressureIn, Mean Sea Level PressureIn, Min Sea Level PressureIn, Max VisibilityMiles, Mean VisibilityMiles, Min VisibilityMiles, Max Wind SpeedMPH, Mean Wind SpeedMPH, Max Gust SpeedMPH,PrecipitationIn, CloudCover, Events, WindDirDegrees
2013-2-1,21,17,13,12,5,2,71,62,53,30.39,30.19,29.86,10,9,2,17,10,25,T,8,Snow,267
2013-2-2,25,18,11,21,16,3,88,76,64,30.36,30.07,29.97,10,4,0,13,4,18,0.04,8,Fog-Snow,202
2013-2-3,25,22,18,21,15,9,88,75,62,30.10,29.93,29.87,10,5,1,14,6,23,T,8,Snow,286
2013-2-4,27,22,16,23,18,9,88,78,67,30.11,29.96,29.86,10,4,0,8,3,14,0.13,8,Fog-Snow,171
2013-2-5,31,29,26,26,23,17,92,75,58,29.99,29.91,29.85,10,4,0,9,1,15,0.05,8,Fog-Snow,289
2013-2-6,33,24,14,25,18,12,88,66,43,30.35,30.22,29.96,10,9,6,12,3,16,0.00,5,,306
2013-2-7,46,30,14,27,21,10,88,67,45,30.32,30.16,29.92,10,9,5,12,5,16,0.00,1,,124
2013-2-8,43,35,26,36,27,18,89,79,69,30.27,29.98,29.77,10,8,2,24,10,33,0.11,7,Rain-Snow,286
2013-2-9,35,27,19,19,17,15,84,64,44,30.46,30.39,30.29,10,10,8,14,4,21,T,4,Snow,313
2013-2-10,50,34,18,34,21,13,84,61,37,30.35,30.16,29.90,10,10,10,23,6,33,T,3,Rain,140
2013-2-11,57,47,37,44,35,23,86,64,41,29.97,29.82,29.73,10,10,5,28,12,41,0.01,6,Rain,222
2013-2-12,44,36,27,25,23,21,75,60,45,30.13,30.03,29.94,10,10,10,17,6,26,0.00,5,,269
2013-2-13,36,30,24,27,24,20,88,79,69,29.93,29.83,29.72,10,7,5,9,2,13,T,3,,339
2013-2-14,41,33,24,34,29,21,89,83,76,29.97,29.91,29.85,10,8,4,15,6,23,T,6,,180
2013-2-15,37,32,27,30,27,19,89,72,54,30.12,30.04,29.94,10,6,1,16,5,20,0.01,7,Snow,293
2013-2-16,31,26,20,21,15,8,77,60,42,30.11,30.02,29.98,10,7,1,16,5,21,T,7,Snow,288
2013-2-17,25,20,14,14,9,5,80,64,47,30.29,30.12,29.99,10,9,2,17,8,24,T,7,Snow,295
2013-2-18,49,30,11,28,17,7,84,60,36,30.31,30.13,29.83,10,10,10,16,7,24,0.00,1,,145
2013-2-19,49,35,21,38,26,11,82,64,46,30.04,29.82,29.68,10,8,2,30,13,47,0.31,8,Rain-Snow,234
2013-2-20,23,21,19,16,11,7,77,67,57,30.28,30.16,30.01,10,7,2,20,10,36,T,8,Snow,266
2013-2-21,28,25,21,16,14,12,77,67,57,30.38,30.31,30.21,10,8,2,13,6,17,T,6,Snow,334
2013-2-22,42,33,23,38,28,14,85,74,62,30.29,30.04,29.94,10,9,3,15,5,17,0.01,7,Rain,123
2013-2-23,43,36,28,33,29,23,89,71,53,30.01,29.94,29.90,10,9,6,12,3,16,0.00,6,,281
2013-2-24,34,31,27,24,21,18,85,68,51,30.18,30.06,29.92,10,9,5,13,4,18,T,7,Snow,286
2013-2-25,45,34,23,25,22,19,88,64,40,30.25,30.17,30.06,10,10,6,13,2,18,0.00,1,,68
2013-2-26,41,35,28,39,28,20,92,70,48,30.05,29.73,29.54,10,8,2,22,10,29,0.65,6,Rain,111
2013-2-27,42,38,34,39,34,28,92,81,70,29.70,29.62,29.51,10,9,5,15,7,23,0.32,8,Rain,219
2013-2-28,37,35,32,31,29,26,89,82,75,29.90,29.73,29.62,10,7,1,15,8,21,0.02,8,Snow,277